Theta_e
314 314 319 318 319 318 317 316 316 316 315 315 315 313 312 314 316 318 322 325 327 327 328 328 328 327 325 324 322 321 318 317 317 315 313 310 307 303 301 300 298 297 296 295
318 316 315 316 315 314 315 316 315 315 315 312 312 313 313 313 315 317 320 322 324 325 325 325 325 324 323 322 321 319 317 317 315 310 306 304 302 301 299 297 296 295 299 299
316 311 311 312 312 313 314 314 315 314 312 311 312 311 311 314 316 316 317 317 317 318 319 319 319 319 319 319 319 317 316 314 310 307 305 303 301 299 297 297 299 299 299 296
310 308 311 314 312 311 312 311 310 311 311 312 311 312 313 313 313 313 314 314 315 315 316 317 318 318 318 317 316 314 312 309 307 305 302 298 297 297 298 298 299 300 295 293
311 311 312 314 311 312 312 313 312 310 310 313 313 314 314 314 314 314 314 314 314 314 314 315 317 318 317 316 314 311 307 305 301 298 297 297 298 298 299 300 298 294 292 291
307 310 312 312 311 313 311 312 312 311 311 312 311 307 311 313 314 314 314 314 314 314 314 314 314 315 314 311 309 306 302 299 298 298 298 299 299 300 299 296 293 291 291 290
303 306 308 308 312 311 312 311 313 313 314 312 310 311 315 313 313 313 312 312 312 311 311 310 309 309 309 306 303 300 299 299 300 300 300 300 297 293 292 291 291 290 290 289
305 305 312 311 312 310 309 312 314 314 314 314 314 314 313 311 310 310 309 307 307 307 306 303 302 303 302 302 302 302 301 301 301 298 294 292 291 291 291 291 290 289 289 289
311 311 310 312 312 313 315 314 313 313 314 314 313 310 309 308 307 305 305 305 303 304 302 301 300 300 300 300 300 299 296 294 292 290 290 290 290 290 290 289 289 289 289 289
311 313 313 313 314 314 314 314 314 314 315 314 313 308 307 305 304 303 302 301 301 300 300 300 299 298 297 294 293 292 290 290 289 289 289 289 289 289 289 289 289 289 289 289
312 313 313 313 313 313 314 314 315 315 315 314 313 307 306 303 301 300 300 299 299 299 298 296 293 292 291 291 291 290 290 290 290 290 290 290 290 289 290 290 290 290 290 290
311 314 312 313 312 312 313 312 313 313 310 308 309 307 303 301 299 299 298 298 296 294 293 292 292 292 292 291 291 291 290 290 290 290 290 290 290 290 291 291 291 291 291 290
313 315 313 312 310 310 311 310 309 309 308 306 303 302 300 299 298 297 295 294 293 293 292 292 292 292 291 291 290 290 290 290 290 290 290 289 289 289 289 287 289 290 290 291
315 314 307 309 307 308 308 306 305 304 303 302 301 299 298 297 295 294 294 293 292 291 291 291 290 290 290 290 289 288 287 286 285 284 284 284 284 285 286 287 287 287 286 287
312 313 313 309 307 305 305 304 303 301 299 298 298 297 296 295 294 294 293 293 292 290 290 290 289 288 287 287 286 284 283 282 282 281 281 281 280 280 281 282 283 284 285 285
309 310 308 307 304 302 302 300 300 297 297 296 296 295 294 293 293 292 291 290 289 289 288 287 287 286 285 284 283 282 281 281 280 280 280 280 280 280 281 282 282 283 283 284
305 300 302 301 301 299 299 298 298 297 296 295 295 294 293 291 290 289 287 287 287 287 286 286 285 283 282 281 281 281 280 280 279 279 279 279 279 280 280 280 281 281 281 282
310 307 305 306 302 299 297 297 297 296 295 294 291 290 290 289 288 287 287 286 286 285 284 284 283 281 280 280 280 279 279 278 278 277 277 277 278 278 278 279 279 280 280 281
308 307 304 303 300 299 298 297 295 293 291 290 289 288 287 287 287 286 285 284 284 283 283 282 281 280 279 279 278 278 277 277 277 277 276 276 277 277 277 277 277 277 278 279
303 303 302 300 298 298 296 293 291 290 290 288 288 288 288 287 285 284 284 283 283 282 281 280 279 279 278 278 277 277 276 276 276 276 275 275 275 275 275 275 275 275 275 276
300 300 299 298 297 295 292 291 291 289 288 287 287 288 286 285 284 283 282 282 281 280 279 279 278 277 277 277 276 276 275 275 275 275 274 274 274 274 273 273 273 273 274 274
299 298 296 294 291 292 292 290 289 288 287 287 286 285 284 283 282 281 281 280 279 279 278 277 276 276 276 276 275 275 274 274 274 273 273 273 273 272 272 272 272 272 272 272
297 294 292 294 293 291 289 287 287 287 286 285 284 284 283 282 281 280 280 279 278 277 276 275 275 274 274 274 274 274 273 273 273 273 272 272 271 271 271 271 271 271 271 271
293 294 292 292 291 289 287 285 285 285 285 284 284 283 282 281 280 279 278 278 276 275 274 274 273 273 273 273 273 273 272 272 272 271 271 271 271 270 270 270 270 270 270 270
293 291 290 288 287 286 286 285 285 284 284 283 282 281 280 279 278 278 277 276 275 274 273 273 273 272 272 272 272 272 272 271 271 270 270 270 270 270 269 269 269 269 269 269
290 289 287 287 286 286 285 284 284 283 282 281 280 279 278 277 277 276 275 274 274 273 272 272 272 271 271 271 271 271 271 270 269 269 269 269 269 269 269 269 269 269 269 269
289 288 286 285 284 284 284 283 282 281 280 279 278 277 277 276 275 274 274 273 272 272 272 271 271 270 270 270 270 270 269 269 268 268 269 269 268 268 268 268 268 268 268 268
Wind_Speed
3 3 4 5 5 6 7 5 6 8 7 8 4 7 9 11 8 9 15 22 29 31 31 34 37 38 39 40 38 33 30 30 29 31 30 26 25 21 17 19 15 10 9 8
3 3 3 4 7 6 5 4 7 5 6 3 3 3 12 8 9 11 8 4 10 19 27 34 37 38 38 36 34 34 31 30 31 29 24 21 20 24 20 19 13 10 14 23
4 2 2 6 8 7 7 6 6 6 8 2 2 5 10 15 15 14 11 8 6 2 3 9 19 26 30 32 31 31 33 31 31 27 25 25 24 22 18 11 5 16 24 15
3 3 1 7 2 7 5 2 4 5 5 4 8 14 15 14 15 13 9 8 6 4 1 2 6 12 19 24 26 28 28 28 27 27 24 21 20 16 7 9 21 26 13 19
4 4 4 4 4 6 5 3 3 6 7 11 16 16 12 10 7 6 6 5 4 4 4 5 8 12 16 19 21 23 23 21 20 19 17 11 6 9 19 23 13 13 19 19
3 5 8 8 4 6 6 2 6 6 7 9 5 3 3 5 5 4 3 2 0 2 2 2 2 6 10 12 16 18 19 20 17 8 4 7 13 17 15 10 14 15 18 21
2 3 7 8 5 9 6 7 17 18 16 14 5 5 12 10 7 5 4 4 3 4 3 5 4 0 3 9 12 14 15 13 12 16 16 16 11 10 12 13 14 18 22 22
3 3 7 8 6 8 6 13 24 18 14 13 14 15 16 13 11 9 9 9 9 9 12 13 11 6 9 6 5 4 9 12 13 8 8 10 11 12 13 15 19 21 23 24
8 6 4 6 4 8 22 29 22 20 19 19 21 20 18 15 13 13 13 13 12 11 12 12 9 5 2 2 1 1 3 3 6 9 11 13 15 16 18 19 22 23 25 25
4 2 4 7 13 24 21 24 21 18 21 21 22 20 18 17 17 16 14 13 11 9 9 7 7 8 8 7 5 4 5 8 10 12 14 15 17 19 21 22 24 26 26 26
1 1 5 7 14 22 21 21 22 21 19 19 18 20 20 20 18 16 14 12 9 9 12 12 10 7 5 3 4 6 8 10 11 13 15 17 19 21 23 25 27 30 29 29
6 19 9 15 21 22 23 22 20 19 19 17 16 21 20 20 17 15 15 15 14 13 11 9 5 2 3 5 8 11 14 16 18 21 22 24 26 29 27 28 29 30 32 32
8 27 11 26 25 23 23 20 18 16 16 20 19 19 20 21 19 19 17 14 11 9 6 3 1 3 6 9 12 15 18 20 23 25 27 29 30 32 37 41 35 34 33 35
18 30 19 28 18 22 20 20 19 19 18 19 22 22 23 23 21 17 14 11 7 4 2 0 3 6 9 13 16 18 20 22 24 26 28 29 30 31 30 31 37 41 39 38
26 15 24 26 27 24 22 24 24 24 25 25 22 22 19 20 17 14 11 7 4 2 1 3 6 9 13 16 20 22 25 26 28 28 28 28 30 30 31 31 32 33 35 35
17 19 27 31 29 27 27 27 28 28 24 24 22 20 18 15 13 10 8 6 4 3 4 7 11 15 18 21 23 25 26 26 28 28 28 28 28 28 28 28 29 31 31 33
30 22 28 28 29 29 28 26 25 26 25 23 20 18 14 12 10 8 5 3 1 3 7 11 14 17 21 23 25 26 27 27 27 26 26 25 25 24 23 24 25 27 28 30
13 18 23 26 30 30 28 25 24 23 22 20 18 16 14 11 8 6 4 0 4 7 9 12 16 19 21 23 24 25 25 25 25 25 25 25 24 23 23 23 24 25 24 21
15 23 22 22 25 28 27 26 23 21 20 19 17 15 12 9 6 3 1 3 6 9 12 16 18 20 21 23 23 23 24 24 24 24 24 24 23 23 23 23 24 24 25 26
26 25 24 25 25 24 26 23 22 21 18 16 14 11 8 5 3 1 3 6 8 12 15 18 19 20 21 22 23 23 23 23 24 24 24 24 23 24 24 24 24 25 25 25
23 25 27 27 25 22 21 19 16 19 17 14 10 8 5 4 2 3 6 8 11 13 16 18 20 20 21 22 23 22 22 22 23 23 23 24 23 23 24 25 25 26 26 25
26 27 25 24 25 21 16 17 17 16 15 13 10 7 4 3 3 5 7 10 12 15 17 19 20 21 22 23 22 22 22 22 22 22 22 22 23 24 24 25 26 26 26 25
22 24 25 19 18 19 20 18 15 13 11 9 7 5 3 4 6 8 10 11 13 16 18 19 20 20 21 22 22 22 22 21 22 22 21 21 22 23 24 25 25 25 25 25
21 16 16 16 19 19 19 17 14 11 8 7 5 3 4 6 8 9 10 12 14 16 18 19 19 20 21 21 21 21 21 21 22 21 21 21 22 22 23 24 24 24 24 24
15 15 16 17 17 16 15 14 12 10 7 5 4 6 8 9 10 10 11 13 15 17 19 19 19 20 21 22 21 21 21 21 21 21 22 23 23 23 24 24 24 24 24 24
17 18 18 17 15 14 12 11 9 6 5 7 8 9 9 9 10 11 13 14 17 19 19 18 19 20 21 21 21 20 20 20 20 21 22 22 23 24 24 24 23 23 24 24
17 18 17 14 11 9 9 9 8 8 9 9 10 10 10 11 12 13 15 17 18 19 18 18 18 20 20 21 20 20 20 20 20 21 21 21 22 24 24 24 23 23 23 23
Wind_Direction
208 174 183 190 223 179 211 202 164 251 203 258 308 267 282 258 229 246 237 233 233 234 235 235 231 232 231 231 231 231 234 238 249 245 243 238 239 234 231 234 214 216 226 276
158 73 26 247 240 239 221 226 263 244 257 231 292 93 69 84 128 100 105 181 241 252 253 252 251 247 246 246 242 237 238 239 238 233 229 230 225 222 208 187 191 204 306 291
228 63 6 329 222 220 227 210 186 190 222 138 69 56 66 100 104 100 99 106 109 123 255 268 271 266 261 253 246 235 229 229 228 225 224 221 222 200 189 191 309 310 293 293
183 61 341 240 285 223 192 280 232 126 123 120 126 97 88 100 112 112 105 95 90 91 108 235 253 255 250 247 240 228 224 225 222 221 213 188 183 180 216 311 282 284 285 287
143 181 292 282 189 159 164 249 335 131 130 137 119 92 62 76 84 87 81 71 37 8 341 307 259 251 248 236 228 221 215 206 189 179 171 176 201 273 269 274 277 292 288 291
140 151 207 230 233 183 119 287 199 162 166 167 139 90 247 157 135 140 159 171 301 357 342 309 278 241 237 212 204 192 178 173 166 169 219 272 281 279 281 293 281 285 290 295
135 205 286 244 199 143 146 231 171 177 165 152 157 187 168 182 182 183 174 173 176 157 122 74 69 169 208 170 173 174 187 204 230 266 278 290 308 299 283 283 286 290 295 296
92 73 278 200 137 166 202 146 165 173 167 156 156 161 170 175 168 154 143 127 121 122 109 103 104 118 123 143 164 245 276 288 297 305 313 300 294 290 285 283 289 293 292 294
176 207 230 198 213 188 156 159 170 170 171 165 158 160 164 159 149 142 138 134 126 122 118 114 107 89 69 34 18 14 43 1 325 313 305 297 291 289 289 290 290 289 290 292
104 217 225 185 170 164 170 168 172 178 172 173 166 166 159 156 150 147 140 134 127 124 118 106 91 92 91 83 59 23 342 327 320 312 306 302 299 297 294 293 292 291 290 292
79 66 104 172 174 170 166 167 166 166 173 174 170 162 164 156 151 144 137 130 125 119 111 103 96 90 77 38 358 339 332 324 318 313 310 305 300 299 298 296 298 297 292 292
213 186 169 182 172 168 163 160 162 168 157 158 171 163 159 147 142 138 132 127 123 118 117 115 111 71 359 333 325 319 317 313 310 306 303 300 297 294 287 289 293 293 293 292
164 172 187 165 165 165 164 160 159 161 159 153 148 151 152 142 137 133 128 129 129 124 120 120 92 328 327 322 321 319 318 314 312 310 308 307 304 301 300 300 296 294 291 290
171 158 132 158 164 167 167 157 154 146 143 145 144 145 144 140 139 139 137 134 128 129 138 312 317 322 324 320 317 316 314 313 313 313 312 313 314 312 310 310 308 306 303 298
157 179 182 166 158 156 159 154 147 142 141 139 143 144 146 142 142 141 141 147 154 170 240 300 314 321 323 325 326 325 324 323 322 321 319 317 315 315 314 312 310 304 306 305
140 143 151 156 153 153 155 153 148 144 147 145 146 146 144 143 141 145 153 166 200 237 306 325 330 332 331 330 330 330 330 330 328 326 324 324 325 327 325 325 322 315 312 308
131 124 145 147 154 155 158 157 154 151 149 150 150 152 152 150 146 145 147 153 238 327 333 334 334 334 332 333 334 333 330 328 327 327 327 326 323 324 330 331 332 327 322 322
181 171 169 165 162 159 156 155 155 155 156 155 153 151 153 154 154 144 142 77 331 325 323 328 331 333 333 332 331 329 328 329 330 330 330 329 329 325 321 321 324 330 345 351
152 153 156 160 164 161 159 158 159 157 153 152 151 152 151 145 137 140 151 306 307 318 329 332 333 332 330 329 331 329 328 328 327 327 327 326 326 328 327 326 324 322 322 328
152 156 159 159 161 162 156 157 155 150 152 155 157 155 154 152 163 240 298 306 320 328 329 328 328 329 329 330 330 329 328 328 327 326 325 325 325 325 326 325 327 327 327 324
154 151 152 154 156 157 153 148 160 163 157 162 167 165 171 178 213 284 300 311 321 321 323 325 326 327 330 331 331 329 328 327 327 327 328 330 328 328 328 326 326 327 327 327
152 151 151 152 149 145 155 161 168 172 168 170 176 182 191 214 258 278 301 314 318 321 324 326 328 328 330 331 329 328 329 329 329 328 330 329 329 331 331 331 330 329 327 326
150 149 151 156 154 158 165 167 168 173 172 171 174 187 221 262 285 301 309 316 321 327 328 327 326 327 330 330 328 328 329 329 329 330 331 330 331 331 331 332 331 330 329 328
153 159 155 162 170 166 165 167 174 176 184 186 200 233 271 284 290 301 308 318 324 327 327 326 325 324 325 326 324 326 326 326 327 328 327 328 328 329 330 331 330 330 329 328
163 159 167 165 168 172 176 176 182 188 197 218 251 278 289 292 298 304 306 313 318 322 323 322 319 319 322 322 320 321 322 325 326 325 325 326 328 329 330 330 330 330 329 329
165 168 171 175 177 182 182 180 189 202 243 266 275 282 289 296 302 305 309 313 318 322 322 317 314 314 317 318 319 320 321 324 324 324 325 327 328 329 329 330 331 330 330 330
172 176 173 168 167 171 188 205 219 234 253 271 278 288 293 300 304 304 308 313 318 320 320 314 309 310 316 318 319 320 320 321 323 324 325 327 327 328 329 331 332 332 332 331